DIRECTV 5 (TEMPO 1)

Last updated on Thu Nov 21 2024 00:02:40 GMT+0000 (Coordinated Universal Time)

1 27426U 02023A 24324.55863073 -.00000054 00000+0 00000+0 0 9998 2 27426 3.4018 82.4801 0003578 162.6693 264.9148 1.00271811 82362
UTC large
Height (km)
Speed (km/s)
/
Latitude / Longitude
Inclination (degrees)
Orbital Period (minutes)
Azimuth
Elevation
Range (km)
Doppler Factor

Next 0 passes for location: London (51.5072 / 0.1276)

Sorry there are no passes over London.